WZZ3384 EPKK-LFMN

Flight info

Callsign WZZ3384
Flight time N/A
Altitude 36000
Route BABKO DCT VADEX DCT KOPAT DCT MAREG DCT NIGSI DCT GRZ DCT RIFEN/N0429F350 DCT ARDAM DCT BIKTU/N0395F290 DCT TOBGA/N0410F300 DCT DOBIM DCT AKUTI R16 KERIT
Aircraft A21N/M-SDE1E2E3FGIJ1J4RWXY/LB1

Departure

Time 2026-05-01 10:53
Airport Kraków John Paul II International Airport (EPKK)

Arrival

Time N/A
Airport Nice-Côte d'Azur Airport (LFMN)
Time Latitude Longitude Altitude Speed Heading
2026-05-01 10:42 50.07483 19.80139 800 ft 0 kts 166°
2026-05-01 10:50 50.07476 19.80142 800 ft 2 kts 166°
2026-05-01 10:50 50.07446 19.80155 800 ft 5 kts 156°
2026-05-01 10:50 50.07428 19.80212 800 ft 11 kts 84°
2026-05-01 10:51 50.07455 19.80352 800 ft 13 kts 48°
2026-05-01 10:51 50.07538 19.80410 800 ft 9 kts 18°
2026-05-01 10:51 50.07606 19.80418 800 ft 10 kts 351°
2026-05-01 10:51 50.07684 19.80392 800 ft 11 kts 347°
2026-05-01 10:52 50.07760 19.80362 800 ft 11 kts 349°
2026-05-01 10:52 50.07841 19.80335 800 ft 11 kts 348°
2026-05-01 10:52 50.07923 19.80307 800 ft 12 kts 347°
2026-05-01 10:52 50.08000 19.80259 801 ft 11 kts 291°
2026-05-01 10:53 50.07991 19.80063 801 ft 35 kts 257°
2026-05-01 10:53 50.07880 19.79250 801 ft 114 kts 257°
2026-05-01 10:53 50.07665 19.77712 814 ft 173 kts 259°
2026-05-01 10:53 50.07431 19.75921 1541 ft 169 kts 261°
2026-05-01 10:54 50.07203 19.74105 2214 ft 171 kts 261°
2026-05-01 10:54 50.06923 19.72274 2579 ft 183 kts 259°
2026-05-01 10:54 50.06613 19.70261 2896 ft 198 kts 259°
2026-05-01 10:54 50.06272 19.68105 3267 ft 212 kts 255°
2026-05-01 10:55 50.05475 19.66073 3516 ft 236 kts 226°
2026-05-01 10:55 50.03989 19.64784 3872 ft 256 kts 194°
2026-05-01 10:55 50.02161 19.64822 4250 ft 273 kts 167°
2026-05-01 10:55 50.00291 19.65500 4858 ft 280 kts 173°
2026-05-01 10:56 49.98465 19.65319 5472 ft 282 kts 196°
2026-05-01 10:56 49.96620 19.64371 6154 ft 284 kts 202°
2026-05-01 10:56 49.94746 19.63265 6798 ft 290 kts 202°
2026-05-01 10:56 49.92844 19.62188 7446 ft 294 kts 200°
2026-05-01 10:57 49.90922 19.61168 8066 ft 299 kts 199°
2026-05-01 10:57 49.88920 19.60159 8670 ft 303 kts 197°
2026-05-01 10:57 49.86899 19.59172 9265 ft 308 kts 197°
2026-05-01 10:57 49.84826 19.58179 9857 ft 313 kts 196°
2026-05-01 10:58 49.82754 19.57195 10434 ft 317 kts 196°
2026-05-01 10:58 49.80595 19.56175 10842 ft 328 kts 196°
2026-05-01 10:58 49.78394 19.55137 11123 ft 342 kts 196°
2026-05-01 10:58 49.76086 19.54047 11538 ft 352 kts 196°
2026-05-01 10:59 49.73741 19.52938 12088 ft 356 kts 195°
2026-05-01 10:59 49.71360 19.51811 12646 ft 359 kts 195°
2026-05-01 10:59 49.68949 19.50675 13168 ft 363 kts 195°
2026-05-01 10:59 49.66540 19.49541 13714 ft 367 kts 195°
2026-05-01 11:00 49.64092 19.48391 14230 ft 371 kts 195°
2026-05-01 11:00 49.61673 19.46933 14712 ft 377 kts 208°
2026-05-01 11:00 49.59532 19.44573 15223 ft 380 kts 224°
2026-05-01 11:00 49.57712 19.41705 15743 ft 382 kts 229°
2026-05-01 11:01 49.55903 19.38651 16231 ft 386 kts 229°
2026-05-01 11:01 49.54092 19.35584 16721 ft 389 kts 229°
2026-05-01 11:01 49.52274 19.32542 17176 ft 392 kts 228°
2026-05-01 11:01 49.50403 19.29452 17622 ft 396 kts 227°
2026-05-01 11:02 49.48512 19.26356 18073 ft 399 kts 227°
2026-05-01 11:02 49.46623 19.23280 18531 ft 401 kts 227°
2026-05-01 11:02 49.44689 19.20136 18995 ft 404 kts 227°
2026-05-01 11:02 49.42756 19.17006 19412 ft 407 kts 227°
2026-05-01 11:03 49.40817 19.13866 19813 ft 410 kts 227°
2026-05-01 11:03 49.38847 19.10677 20231 ft 412 kts 227°
2026-05-01 11:03 49.36886 19.07513 20635 ft 415 kts 227°
2026-05-01 11:03 49.34884 19.04283 21015 ft 418 kts 227°
2026-05-01 11:04 49.32880 19.01056 21399 ft 421 kts 227°
2026-05-01 11:04 49.30857 18.97793 21778 ft 424 kts 227°
2026-05-01 11:04 49.28815 18.94511 22158 ft 426 kts 227°
2026-05-01 11:04 49.26790 18.91266 22529 ft 429 kts 227°
2026-05-01 11:05 49.24733 18.87968 22883 ft 432 kts 227°
2026-05-01 11:05 49.22648 18.84634 23254 ft 434 kts 227°
2026-05-01 11:05 49.20563 18.81303 23610 ft 437 kts 227°
2026-05-01 11:05 49.18465 18.77951 23933 ft 440 kts 227°
2026-05-01 11:06 49.16338 18.74557 24278 ft 442 kts 227°
2026-05-01 11:06 49.14225 18.71192 24628 ft 444 kts 227°
2026-05-01 11:06 49.12081 18.67785 24972 ft 447 kts 227°
2026-05-01 11:07 49.08023 18.60626 25618 ft 450 kts 232°
2026-05-01 11:07 49.06054 18.56895 25956 ft 452 kts 233°
2026-05-01 11:07 49.04083 18.53146 26270 ft 454 kts 233°
2026-05-01 11:07 49.02120 18.49423 26587 ft 455 kts 233°
2026-05-01 11:08 49.00111 18.45621 26898 ft 457 kts 233°
2026-05-01 11:08 48.98110 18.41843 27184 ft 460 kts 233°
2026-05-01 11:08 48.94105 18.34310 27728 ft 464 kts 232°
2026-05-01 11:09 48.92071 18.30490 28006 ft 466 kts 232°
2026-05-01 11:09 48.90041 18.26687 28272 ft 468 kts 232°
2026-05-01 11:09 48.87993 18.22855 28509 ft 470 kts 232°
2026-05-01 11:10 48.83859 18.15143 28995 ft 473 kts 232°
2026-05-01 11:10 48.81774 18.11257 29248 ft 474 kts 232°
2026-05-01 11:10 48.79704 18.07410 29509 ft 476 kts 232°
2026-05-01 11:10 48.77589 18.03482 29738 ft 477 kts 232°
2026-05-01 11:11 48.75550 17.99699 29962 ft 479 kts 232°
2026-05-01 11:11 48.73460 17.95828 30179 ft 481 kts 232°
2026-05-01 11:11 48.71318 17.91870 30387 ft 483 kts 232°
2026-05-01 11:11 48.69176 17.87917 30612 ft 485 kts 232°
2026-05-01 11:12 48.67065 17.84024 30828 ft 486 kts 232°
2026-05-01 11:12 48.64904 17.80046 31051 ft 487 kts 232°
2026-05-01 11:12 48.62752 17.76086 31274 ft 489 kts 232°
2026-05-01 11:12 48.60596 17.72133 31471 ft 490 kts 232°
2026-05-01 11:13 48.58450 17.68197 31680 ft 492 kts 232°
2026-05-01 11:13 48.56265 17.64198 31884 ft 493 kts 232°
2026-05-01 11:13 48.54094 17.60230 32077 ft 495 kts 232°
2026-05-01 11:13 48.51896 17.56222 32290 ft 496 kts 232°
2026-05-01 11:14 48.49711 17.52237 32533 ft 496 kts 232°
2026-05-01 11:14 48.47524 17.48260 32787 ft 496 kts 232°
2026-05-01 11:14 48.45322 17.44257 33043 ft 495 kts 232°
2026-05-01 11:14 48.43144 17.40307 33295 ft 495 kts 232°
2026-05-01 11:15 48.40947 17.36331 33559 ft 494 kts 232°
2026-05-01 11:15 48.38745 17.32345 33799 ft 494 kts 232°
2026-05-01 11:15 48.36540 17.28356 34031 ft 494 kts 231°
2026-05-01 11:15 48.34352 17.24409 34250 ft 494 kts 231°
2026-05-01 11:16 48.32155 17.20453 34487 ft 493 kts 231°
2026-05-01 11:16 48.29965 17.16513 34713 ft 492 kts 231°
2026-05-01 11:16 48.27756 17.12543 34925 ft 492 kts 231°
2026-05-01 11:16 48.25582 17.08640 35149 ft 491 kts 231°
2026-05-01 11:17 48.23398 17.04733 35346 ft 490 kts 231°
2026-05-01 11:17 48.21188 17.00878 35545 ft 490 kts 229°
2026-05-01 11:17 48.18962 16.97410 35732 ft 490 kts 225°
2026-05-01 11:17 48.16460 16.93988 35921 ft 489 kts 220°
2026-05-01 11:18 48.13782 16.90782 36108 ft 489 kts 218°
2026-05-01 11:18 48.11091 16.87695 36275 ft 489 kts 217°
2026-05-01 11:18 48.05677 16.81515 36364 ft 490 kts 217°
2026-05-01 11:19 48.00276 16.75327 36364 ft 491 kts 218°
2026-05-01 11:19 47.94872 16.69133 36361 ft 490 kts 218°
2026-05-01 11:20 47.89503 16.62990 36360 ft 490 kts 218°
2026-05-01 11:20 47.84106 16.56828 36352 ft 490 kts 217°
2026-05-01 11:21 47.78669 16.50643 36359 ft 491 kts 218°
2026-05-01 11:21 47.73251 16.44493 36356 ft 492 kts 218°
2026-05-01 11:22 47.67823 16.38347 36354 ft 492 kts 218°
2026-05-01 11:22 47.62396 16.32218 36354 ft 492 kts 217°
2026-05-01 11:23 47.56974 16.26110 36353 ft 492 kts 217°
2026-05-01 11:23 47.51531 16.19997 36349 ft 492 kts 217°
2026-05-01 11:24 47.46096 16.13904 36348 ft 493 kts 217°
2026-05-01 11:25 47.37935 16.04734 36349 ft 493 kts 219°
2026-05-01 11:25 47.30472 15.94536 36350 ft 494 kts 225°
2026-05-01 11:26 47.23104 15.83968 36345 ft 494 kts 225°
2026-05-01 11:27 47.18169 15.76945 36347 ft 494 kts 225°
2026-05-01 11:27 47.13257 15.69980 36343 ft 494 kts 225°
2026-05-01 11:28 47.08305 15.62973 36352 ft 495 kts 225°
2026-05-01 11:28 47.03360 15.55998 36349 ft 494 kts 225°
2026-05-01 11:29 46.95969 15.45534 36355 ft 495 kts 227°
2026-05-01 11:30 46.89252 15.34184 36357 ft 494 kts 231°
2026-05-01 11:30 46.84861 15.26529 36358 ft 494 kts 231°
2026-05-01 11:31 46.80436 15.18864 36350 ft 494 kts 231°
2026-05-01 11:31 46.75994 15.11207 36339 ft 495 kts 231°
2026-05-01 11:32 46.71561 15.03586 36328 ft 494 kts 231°
2026-05-01 11:32 46.67165 14.96046 36317 ft 495 kts 231°
2026-05-01 11:33 46.62720 14.88452 36318 ft 494 kts 231°
2026-05-01 11:33 46.58280 14.80884 36314 ft 493 kts 231°
2026-05-01 11:34 46.53843 14.73336 36298 ft 494 kts 231°
2026-05-01 11:34 46.49389 14.65788 36305 ft 494 kts 231°
2026-05-01 11:35 46.44912 14.58218 36317 ft 494 kts 231°
2026-05-01 11:35 46.40475 14.50735 36338 ft 493 kts 231°
2026-05-01 11:36 46.35999 14.43210 36345 ft 492 kts 231°